QPF
0.00 0.00 0.00 0.00 0.00 0.00 0.00 0.00 0.00 0.00 0.00 0.00 0.00 0.00 0.00 0.00 0.00 0.00 0.00 0.00 0.00 0.00 0.00 0.01 0.04 0.08 0.10 0.12 0.16 0.22 0.28 0.37 0.39 0.30 0.23 0.19 0.15 0.17 0.14 0.11 0.09 0.09 0.12 0.15
0.00 0.00 0.00 0.00 0.00 0.00 0.00 0.00 0.00 0.00 0.00 0.00 0.00 0.00 0.00 0.00 0.00 0.00 0.00 0.00 0.00 0.00 0.00 0.00 0.01 0.02 0.04 0.07 0.11 0.16 0.19 0.23 0.26 0.25 0.22 0.21 0.20 0.17 0.15 0.17 0.17 0.15 0.18 0.24
0.00 0.00 0.00 0.00 0.00 0.00 0.00 0.00 0.00 0.00 0.00 0.00 0.00 0.00 0.00 0.00 0.00 0.00 0.00 0.00 0.00 0.00 0.01 0.01 0.01 0.01 0.02 0.03 0.06 0.10 0.11 0.11 0.14 0.15 0.18 0.21 0.21 0.15 0.16 0.20 0.22 0.23 0.26 0.31
0.00 0.00 0.00 0.00 0.00 0.00 0.00 0.00 0.00 0.00 0.00 0.00 0.00 0.00 0.00 0.00 0.00 0.00 0.01 0.01 0.01 0.02 0.01 0.02 0.01 0.01 0.01 0.02 0.03 0.05 0.05 0.06 0.06 0.07 0.11 0.14 0.16 0.13 0.16 0.21 0.20 0.20 0.21 0.25
0.00 0.00 0.00 0.00 0.00 0.00 0.00 0.00 0.00 0.00 0.00 0.00 0.00 0.00 0.00 0.00 0.01 0.02 0.02 0.02 0.02 0.03 0.02 0.01 0.00 0.00 0.00 0.01 0.01 0.01 0.01 0.02 0.02 0.03 0.06 0.07 0.09 0.09 0.12 0.15 0.16 0.17 0.18 0.19
0.00 0.00 0.00 0.00 0.00 0.00 0.00 0.00 0.00 0.00 0.00 0.00 0.01 0.01 0.01 0.02 0.04 0.04 0.03 0.02 0.01 0.01 0.01 0.00 0.00 0.00 0.00 0.00 0.00 0.00 0.00 0.00 0.00 0.01 0.02 0.04 0.06 0.07 0.06 0.08 0.10 0.11 0.11 0.13
0.00 0.00 0.00 0.00 0.00 0.00 0.00 0.00 0.00 0.00 0.00 0.00 0.01 0.01 0.02 0.03 0.04 0.03 0.02 0.01 0.01 0.00 0.00 0.00 0.00 0.00 0.00 0.00 0.00 0.00 0.00 0.00 0.00 0.00 0.01 0.01 0.02 0.03 0.03 0.05 0.08 0.08 0.07 0.08
0.00 0.00 0.00 0.00 0.00 0.00 0.00 0.00 0.00 0.00 0.00 0.00 0.00 0.01 0.01 0.02 0.02 0.02 0.02 0.02 0.01 0.00 0.00 0.00 0.00 0.00 0.00 0.00 0.00 0.00 0.00 0.00 0.00 0.00 0.00 0.00 0.01 0.01 0.02 0.03 0.04 0.05 0.05 0.07
0.00 0.00 0.00 0.00 0.00 0.00 0.00 0.00 0.00 0.00 0.00 0.00 0.00 0.00 0.01 0.01 0.01 0.01 0.01 0.01 0.00 0.00 0.00 0.00 0.00 0.00 0.00 0.00 0.00 0.00 0.00 0.00 0.00 0.00 0.00 0.00 0.01 0.01 0.01 0.02 0.03 0.05 0.07 0.09
0.00 0.00 0.00 0.00 0.00 0.00 0.01 0.00 0.00 0.00 0.00 0.00 0.00 0.00 0.00 0.00 0.00 0.00 0.00 0.00 0.00 0.00 0.00 0.00 0.00 0.00 0.00 0.00 0.00 0.00 0.00 0.00 0.00 0.00 0.00 0.00 0.01 0.01 0.01 0.02 0.03 0.05 0.07 0.09
0.00 0.00 0.00 0.00 0.00 0.00 0.00 0.01 0.00 0.00 0.00 0.00 0.00 0.00 0.00 0.00 0.00 0.00 0.00 0.00 0.00 0.00 0.00 0.00 0.00 0.00 0.00 0.00 0.00 0.00 0.00 0.00 0.00 0.00 0.00 0.00 0.00 0.01 0.01 0.02 0.04 0.06 0.07 0.09
0.00 0.00 0.00 0.00 0.00 0.00 0.01 0.01 0.00 0.00 0.00 0.00 0.00 0.00 0.00 0.00 0.00 0.00 0.00 0.00 0.00 0.00 0.00 0.00 0.00 0.00 0.00 0.00 0.00 0.00 0.00 0.00 0.00 0.00 0.00 0.00 0.00 0.01 0.01 0.02 0.04 0.06 0.09 0.11
0.00 0.00 0.00 0.00 0.00 0.00 0.00 0.00 0.00 0.00 0.00 0.00 0.00 0.00 0.00 0.00 0.00 0.00 0.00 0.00 0.00 0.00 0.00 0.00 0.00 0.00 0.00 0.00 0.00 0.00 0.00 0.00 0.00 0.00 0.00 0.00 0.01 0.01 0.01 0.03 0.04 0.06 0.06 0.07
0.00 0.00 0.00 0.00 0.00 0.00 0.00 0.00 0.00 0.00 0.00 0.00 0.00 0.00 0.00 0.00 0.00 0.00 0.00 0.00 0.00 0.00 0.00 0.00 0.00 0.00 0.00 0.00 0.00 0.00 0.00 0.00 0.00 0.00 0.00 0.01 0.01 0.01 0.02 0.02 0.02 0.03 0.04 0.04
0.00 0.00 0.00 0.00 0.00 0.00 0.00 0.00 0.00 0.00 0.00 0.00 0.00 0.00 0.00 0.00 0.00 0.00 0.00 0.00 0.00 0.00 0.00 0.00 0.00 0.00 0.00 0.00 0.00 0.00 0.00 0.00 0.00 0.00 0.00 0.01 0.01 0.01 0.01 0.01 0.01 0.02 0.02 0.02
0.00 0.00 0.00 0.00 0.00 0.00 0.00 0.00 0.00 0.00 0.00 0.00 0.00 0.00 0.00 0.00 0.00 0.00 0.00 0.00 0.00 0.00 0.00 0.00 0.00 0.00 0.00 0.00 0.00 0.00 0.00 0.00 0.00 0.00 0.01 0.01 0.01 0.01 0.01 0.01 0.02 0.02 0.02 0.03
0.00 0.00 0.00 0.00 0.00 0.00 0.00 0.00 0.00 0.00 0.00 0.00 0.00 0.00 0.00 0.00 0.00 0.00 0.00 0.00 0.00 0.00 0.00 0.00 0.00 0.00 0.00 0.00 0.00 0.00 0.00 0.00 0.00 0.00 0.01 0.01 0.01 0.01 0.01 0.01 0.02 0.02 0.02 0.02
0.00 0.00 0.00 0.00 0.00 0.00 0.00 0.00 0.00 0.00 0.01 0.00 0.00 0.00 0.00 0.00 0.00 0.00 0.00 0.00 0.00 0.00 0.00 0.00 0.00 0.00 0.00 0.00 0.00 0.00 0.00 0.00 0.01 0.01 0.02 0.02 0.02 0.02 0.01 0.01 0.01 0.02 0.02 0.01
0.00 0.00 0.00 0.00 0.00 0.00 0.00 0.01 0.02 0.01 0.01 0.00 0.00 0.00 0.00 0.00 0.00 0.00 0.00 0.00 0.00 0.00 0.00 0.00 0.00 0.01 0.00 0.01 0.01 0.01 0.01 0.01 0.02 0.02 0.02 0.02 0.02 0.02 0.02 0.01 0.01 0.01 0.01 0.01
0.00 0.00 0.00 0.00 0.00 0.01 0.00 0.01 0.02 0.01 0.02 0.01 0.00 0.00 0.00 0.00 0.00 0.00 0.00 0.00 0.00 0.00 0.00 0.00 0.01 0.01 0.01 0.01 0.01 0.02 0.02 0.03 0.03 0.03 0.04 0.04 0.03 0.02 0.02 0.03 0.02 0.01 0.01 0.01
0.00 0.00 0.00 0.01 0.02 0.01 0.00 0.01 0.01 0.02 0.02 0.00 0.00 0.00 0.00 0.00 0.00 0.00 0.00 0.00 0.00 0.00 0.00 0.01 0.01 0.02 0.02 0.02 0.03 0.04 0.05 0.05 0.05 0.07 0.08 0.07 0.06 0.04 0.03 0.03 0.03 0.02 0.01 0.01
0.00 0.00 0.01 0.01 0.03 0.03 0.01 0.00 0.00 0.00 0.00 0.00 0.00 0.00 0.00 0.00 0.00 0.00 0.00 0.00 0.00 0.00 0.01 0.01 0.02 0.02 0.03 0.04 0.06 0.08 0.09 0.09 0.10 0.11 0.11 0.10 0.09 0.06 0.04 0.03 0.03 0.02 0.02 0.01
0.00 0.01 0.01 0.01 0.01 0.00 0.00 0.00 0.00 0.00 0.00 0.00 0.00 0.00 0.00 0.00 0.00 0.00 0.00 0.00 0.00 0.00 0.00 0.01 0.02 0.03 0.04 0.07 0.11 0.14 0.15 0.17 0.18 0.17 0.14 0.11 0.10 0.09 0.07 0.06 0.04 0.02 0.02 0.01
0.00 0.00 0.01 0.01 0.00 0.00 0.00 0.00 0.00 0.00 0.00 0.00 0.00 0.00 0.00 0.00 0.00 0.00 0.00 0.00 0.00 0.00 0.01 0.01 0.03 0.05 0.08 0.13 0.19 0.22 0.24 0.25 0.24 0.22 0.18 0.13 0.11 0.10 0.10 0.08 0.05 0.03 0.01 0.01
0.00 0.00 0.00 0.01 0.00 0.00 0.00 0.00 0.00 0.00 0.00 0.00 0.00 0.00 0.00 0.00 0.00 0.00 0.00 0.00 0.00 0.00 0.00 0.01 0.03 0.05 0.08 0.13 0.23 0.32 0.38 0.41 0.38 0.30 0.23 0.17 0.14 0.12 0.10 0.09 0.07 0.04 0.01 0.01
0.00 0.00 0.00 0.00 0.00 0.00 0.00 0.00 0.00 0.00 0.00 0.00 0.00 0.00 0.00 0.00 0.00 0.00 0.00 0.00 0.00 0.00 0.00 0.01 0.02 0.03 0.06 0.11 0.22 0.33 0.41 0.44 0.44 0.37 0.28 0.21 0.17 0.14 0.10 0.09 0.07 0.04 0.02 0.01
MSLP
1012.61 1013.21 1013.62 1013.84 1013.87 1013.77 1013.60 1013.38 1013.15 1012.91 1012.65 1012.36 1012.02 1011.63 1011.21 1010.79 1010.41 1010.10 1009.89 1009.78 1009.76 1009.81 1009.88 1009.94 1009.95 1009.91 1009.83 1009.73 1009.65 1009.61 1009.64 1009.75 1009.91 1010.10 1010.26 1010.37 1010.38 1010.29 1010.10 1009.84 1009.56 1009.30 1009.12 1009.03
1012.90 1013.33 1013.59 1013.68 1013.67 1013.60 1013.52 1013.48 1013.46 1013.44 1013.38 1013.25 1013.00 1012.63 1012.17 1011.66 1011.16 1010.73 1010.41 1010.23 1010.17 1010.20 1010.27 1010.33 1010.34 1010.27 1010.15 1009.99 1009.84 1009.74 1009.72 1009.79 1009.94 1010.12 1010.29 1010.39 1010.39 1010.26 1010.01 1009.69 1009.33 1009.00 1008.76 1008.64
1012.93 1013.18 1013.28 1013.28 1013.26 1013.27 1013.37 1013.55 1013.80 1014.05 1014.23 1014.26 1014.10 1013.75 1013.22 1012.58 1011.92 1011.33 1010.86 1010.56 1010.43 1010.42 1010.49 1010.56 1010.58 1010.52 1010.39 1010.21 1010.03 1009.89 1009.83 1009.87 1009.99 1010.16 1010.31 1010.40 1010.38 1010.22 1009.93 1009.55 1009.14 1008.76 1008.48 1008.33
1012.76 1012.83 1012.80 1012.75 1012.77 1012.91 1013.22 1013.67 1014.22 1014.75 1015.17 1015.37 1015.29 1014.92 1014.30 1013.50 1012.65 1011.85 1011.20 1010.74 1010.50 1010.44 1010.49 1010.58 1010.63 1010.62 1010.52 1010.35 1010.17 1010.02 1009.94 1009.95 1010.04 1010.18 1010.31 1010.37 1010.32 1010.13 1009.81 1009.39 1008.95 1008.53 1008.22 1008.05
1012.52 1012.43 1012.30 1012.23 1012.32 1012.62 1013.16 1013.89 1014.72 1015.52 1016.15 1016.49 1016.47 1016.06 1015.32 1014.35 1013.28 1012.25 1011.39 1010.77 1010.41 1010.27 1010.30 1010.41 1010.51 1010.55 1010.51 1010.39 1010.24 1010.10 1010.01 1010.00 1010.07 1010.17 1010.26 1010.29 1010.21 1009.99 1009.64 1009.20 1008.73 1008.29 1007.95 1007.76
1012.34 1012.13 1011.94 1011.88 1012.05 1012.51 1013.25 1014.22 1015.29 1016.31 1017.10 1017.54 1017.53 1017.07 1016.20 1015.04 1013.76 1012.52 1011.46 1010.66 1010.17 1009.96 1009.97 1010.10 1010.25 1010.37 1010.40 1010.35 1010.24 1010.13 1010.05 1010.03 1010.06 1010.13 1010.19 1010.18 1010.07 1009.82 1009.45 1008.99 1008.50 1008.03 1007.67 1007.44
1012.34 1012.05 1011.82 1011.79 1012.04 1012.61 1013.51 1014.65 1015.88 1017.03 1017.91 1018.38 1018.36 1017.82 1016.84 1015.52 1014.07 1012.64 1011.41 1010.48 1009.88 1009.60 1009.59 1009.73 1009.93 1010.11 1010.22 1010.24 1010.19 1010.11 1010.05 1010.02 1010.03 1010.07 1010.09 1010.06 1009.92 1009.65 1009.26 1008.78 1008.26 1007.77 1007.37 1007.11
1012.56 1012.23 1012.01 1012.00 1012.29 1012.94 1013.91 1015.12 1016.41 1017.59 1018.48 1018.94 1018.87 1018.26 1017.18 1015.76 1014.19 1012.65 1011.31 1010.28 1009.61 1009.29 1009.25 1009.41 1009.64 1009.86 1010.02 1010.09 1010.09 1010.05 1010.00 1009.97 1009.98 1010.00 1010.00 1009.94 1009.78 1009.50 1009.10 1008.61 1008.07 1007.55 1007.11 1006.79
1012.97 1012.65 1012.45 1012.46 1012.77 1013.42 1014.38 1015.56 1016.80 1017.92 1018.75 1019.14 1019.00 1018.34 1017.22 1015.76 1014.16 1012.60 1011.23 1010.17 1009.47 1009.13 1009.07 1009.21 1009.45 1009.68 1009.86 1009.96 1009.98 1009.95 1009.91 1009.89 1009.89 1009.90 1009.89 1009.83 1009.68 1009.41 1009.01 1008.51 1007.96 1007.41 1006.92 1006.53
1013.47 1013.21 1013.04 1013.07 1013.37 1013.97 1014.84 1015.90 1017.01 1017.99 1018.70 1018.99 1018.80 1018.12 1017.02 1015.61 1014.07 1012.58 1011.26 1010.24 1009.56 1009.20 1009.13 1009.23 1009.43 1009.63 1009.78 1009.86 1009.86 1009.82 1009.77 1009.74 1009.74 1009.76 1009.77 1009.73 1009.61 1009.36 1008.99 1008.51 1007.96 1007.38 1006.85 1006.41
1013.93 1013.76 1013.65 1013.70 1013.96 1014.47 1015.21 1016.10 1017.01 1017.82 1018.37 1018.57 1018.35 1017.70 1016.68 1015.40 1014.02 1012.67 1011.49 1010.56 1009.93 1009.58 1009.47 1009.51 1009.63 1009.74 1009.81 1009.81 1009.75 1009.67 1009.59 1009.54 1009.54 1009.57 1009.61 1009.61 1009.54 1009.35 1009.03 1008.60 1008.07 1007.51 1006.95 1006.47
1014.23 1014.17 1014.14 1014.22 1014.45 1014.87 1015.45 1016.15 1016.87 1017.49 1017.90 1018.02 1017.79 1017.22 1016.35 1015.27 1014.10 1012.96 1011.96 1011.16 1010.60 1010.25 1010.09 1010.04 1010.03 1010.01 1009.94 1009.82 1009.66 1009.49 1009.35 1009.28 1009.26 1009.31 1009.39 1009.45 1009.45 1009.34 1009.11 1008.75 1008.29 1007.76 1007.22 1006.72
1014.31 1014.38 1014.44 1014.56 1014.78 1015.12 1015.58 1016.11 1016.65 1017.12 1017.42 1017.49 1017.30 1016.84 1016.15 1015.29 1014.37 1013.47 1012.66 1012.00 1011.50 1011.16 1010.93 1010.76 1010.60 1010.41 1010.17 1009.89 1009.60 1009.32 1009.10 1008.97 1008.93 1008.99 1009.10 1009.22 1009.30 1009.30 1009.19 1008.94 1008.57 1008.12 1007.63 1007.15
1014.19 1014.38 1014.54 1014.72 1014.95 1015.26 1015.63 1016.04 1016.46 1016.81 1017.04 1017.11 1016.97 1016.64 1016.14 1015.52 1014.83 1014.15 1013.53 1012.99 1012.55 1012.19 1011.88 1011.58 1011.26 1010.89 1010.47 1010.02 1009.57 1009.17 1008.85 1008.64 1008.57 1008.61 1008.74 1008.92 1009.09 1009.20 1009.20 1009.09 1008.85 1008.51 1008.11 1007.69
1013.97 1014.26 1014.52 1014.77 1015.04 1015.34 1015.68 1016.03 1016.38 1016.67 1016.87 1016.95 1016.89 1016.68 1016.35 1015.92 1015.44 1014.94 1014.46 1014.01 1013.60 1013.21 1012.81 1012.39 1011.91 1011.38 1010.80 1010.19 1009.60 1009.06 1008.64 1008.35 1008.21 1008.22 1008.34 1008.55 1008.79 1008.99 1009.13 1009.16 1009.07 1008.87 1008.60 1008.28
1013.76 1014.12 1014.46 1014.79 1015.12 1015.46 1015.81 1016.15 1016.47 1016.74 1016.94 1017.04 1017.04 1016.93 1016.72 1016.43 1016.08 1015.71 1015.31 1014.91 1014.50 1014.07 1013.60 1013.07 1012.48 1011.82 1011.11 1010.38 1009.67 1009.03 1008.50 1008.11 1007.89 1007.84 1007.93 1008.14 1008.40 1008.68 1008.93 1009.09 1009.16 1009.12 1008.99 1008.80
1013.72 1014.12 1014.51 1014.91 1015.29 1015.68 1016.06 1016.42 1016.74 1017.01 1017.22 1017.34 1017.37 1017.30 1017.15 1016.93 1016.64 1016.31 1015.95 1015.56 1015.13 1014.66 1014.13 1013.54 1012.87 1012.14 1011.37 1010.57 1009.78 1009.06 1008.44 1007.96 1007.65 1007.51 1007.53 1007.69 1007.95 1008.26 1008.58 1008.86 1009.06 1009.18 1009.21 1009.16
1013.95 1014.35 1014.77 1015.20 1015.63 1016.05 1016.46 1016.84 1017.17 1017.44 1017.63 1017.74 1017.75 1017.68 1017.52 1017.29 1016.99 1016.65 1016.26 1015.84 1015.38 1014.88 1014.33 1013.72 1013.04 1012.31 1011.52 1010.72 1009.91 1009.15 1008.46 1007.90 1007.48 1007.23 1007.14 1007.22 1007.42 1007.72 1008.07 1008.43 1008.76 1009.02 1009.20 1009.30
1014.49 1014.86 1015.27 1015.70 1016.14 1016.58 1016.99 1017.36 1017.68 1017.92 1018.07 1018.13 1018.09 1017.96 1017.74 1017.43 1017.07 1016.66 1016.22 1015.75 1015.26 1014.74 1014.19 1013.61 1012.97 1012.29 1011.56 1010.79 1010.01 1009.24 1008.52 1007.88 1007.36 1006.98 1006.77 1006.73 1006.84 1007.09 1007.43 1007.83 1008.24 1008.62 1008.94 1009.19
1015.30 1015.63 1016.00 1016.39 1016.80 1017.21 1017.59 1017.92 1018.19 1018.37 1018.45 1018.43 1018.30 1018.06 1017.74 1017.33 1016.87 1016.37 1015.85 1015.33 1014.81 1014.29 1013.77 1013.24 1012.69 1012.09 1011.45 1010.77 1010.04 1009.29 1008.55 1007.85 1007.23 1006.74 1006.39 1006.21 1006.21 1006.37 1006.67 1007.08 1007.54 1008.01 1008.45 1008.83
1016.31 1016.58 1016.88 1017.21 1017.55 1017.89 1018.19 1018.44 1018.62 1018.71 1018.69 1018.56 1018.31 1017.96 1017.52 1017.00 1016.43 1015.84 1015.25 1014.68 1014.14 1013.63 1013.15 1012.69 1012.22 1011.73 1011.19 1010.60 1009.94 1009.23 1008.48 1007.74 1007.05 1006.44 1005.96 1005.65 1005.53 1005.59 1005.84 1006.22 1006.70 1007.24 1007.78 1008.29
1017.37 1017.59 1017.82 1018.06 1018.30 1018.52 1018.71 1018.85 1018.91 1018.88 1018.74 1018.49 1018.13 1017.67 1017.12 1016.50 1015.85 1015.18 1014.53 1013.92 1013.37 1012.87 1012.43 1012.03 1011.64 1011.24 1010.79 1010.27 1009.68 1009.00 1008.26 1007.49 1006.73 1006.04 1005.46 1005.03 1004.80 1004.78 1004.96 1005.31 1005.80 1006.39 1007.00 1007.61
1018.38 1018.55 1018.71 1018.85 1018.96 1019.05 1019.10 1019.09 1019.02 1018.85 1018.60 1018.24 1017.78 1017.23 1016.60 1015.92 1015.20 1014.49 1013.80 1013.17 1012.61 1012.12 1011.69 1011.33 1010.98 1010.63 1010.24 1009.77 1009.22 1008.57 1007.84 1007.05 1006.26 1005.51 1004.86 1004.35 1004.04 1003.95 1004.07 1004.40 1004.90 1005.51 1006.19 1006.88
1019.23 1019.37 1019.45 1019.48 1019.46 1019.41 1019.30 1019.14 1018.92 1018.63 1018.26 1017.81 1017.28 1016.68 1016.01 1015.30 1014.56 1013.84 1013.14 1012.49 1011.92 1011.42 1011.00 1010.63 1010.29 1009.94 1009.56 1009.11 1008.57 1007.93 1007.21 1006.42 1005.61 1004.84 1004.16 1003.62 1003.27 1003.14 1003.23 1003.54 1004.04 1004.68 1005.40 1006.15
1019.87 1019.97 1019.98 1019.90 1019.75 1019.55 1019.29 1018.98 1018.62 1018.22 1017.76 1017.24 1016.67 1016.05 1015.38 1014.68 1013.96 1013.24 1012.55 1011.91 1011.33 1010.80 1010.35 1009.94 1009.56 1009.18 1008.77 1008.30 1007.74 1007.11 1006.39 1005.61 1004.82 1004.06 1003.39 1002.85 1002.50 1002.36 1002.45 1002.76 1003.26 1003.91 1004.67 1005.47
1020.28 1020.34 1020.27 1020.08 1019.81 1019.46 1019.06 1018.61 1018.13 1017.63 1017.10 1016.54 1015.96 1015.34 1014.70 1014.04 1013.36 1012.68 1012.02 1011.38 1010.78 1010.23 1009.73 1009.26 1008.81 1008.36 1007.89 1007.37 1006.79 1006.14 1005.43 1004.68 1003.93 1003.21 1002.58 1002.09 1001.77 1001.66 1001.76 1002.08 1002.58 1003.24 1004.01 1004.83
Thickness
5772 5755 5745 5756 5764 5766 5769 5769 5768 5781 5801 5797 5790 5795 5806 5816 5813 5805 5800 5799 5798 5798 5802 5804 5803 5799 5793 5788 5784 5781 5775 5773 5768 5763 5762 5760 5761 5763 5762 5762 5762 5762 5762 5761
5749 5745 5765 5776 5779 5777 5772 5762 5761 5773 5789 5787 5780 5784 5795 5801 5802 5798 5792 5790 5790 5790 5792 5793 5793 5790 5784 5778 5773 5769 5765 5762 5760 5756 5755 5755 5755 5755 5756 5756 5756 5756 5756 5754
5744 5761 5783 5780 5774 5768 5764 5758 5758 5761 5771 5776 5769 5759 5770 5785 5792 5791 5787 5785 5786 5786 5784 5783 5782 5780 5777 5771 5766 5760 5757 5754 5752 5750 5749 5747 5746 5746 5746 5746 5747 5748 5748 5747
5759 5776 5779 5772 5768 5767 5750 5769 5769 5765 5750 5740 5751 5723 5749 5763 5768 5772 5773 5774 5777 5779 5778 5777 5775 5773 5771 5767 5763 5757 5752 5749 5746 5744 5739 5736 5733 5732 5734 5736 5738 5739 5740 5739
5755 5770 5768 5762 5768 5771 5763 5774 5767 5760 5748 5735 5737 5722 5731 5751 5749 5756 5763 5767 5769 5771 5772 5772 5771 5769 5767 5763 5757 5752 5748 5743 5740 5737 5733 5729 5726 5725 5726 5727 5728 5730 5731 5731
5765 5779 5777 5773 5779 5777 5772 5760 5749 5735 5722 5707 5725 5719 5716 5732 5743 5748 5755 5760 5764 5766 5767 5767 5766 5764 5759 5755 5750 5745 5740 5736 5733 5730 5726 5723 5720 5718 5717 5717 5718 5720 5721 5723
5747 5762 5775 5780 5764 5763 5755 5721 5697 5694 5686 5694 5721 5715 5713 5739 5749 5750 5751 5755 5759 5760 5759 5757 5755 5752 5748 5744 5740 5736 5732 5727 5725 5722 5718 5716 5713 5711 5709 5709 5710 5710 5711 5713
5725 5727 5758 5769 5760 5749 5748 5723 5691 5680 5678 5689 5708 5706 5720 5745 5752 5754 5754 5754 5755 5754 5753 5751 5749 5745 5741 5738 5733 5728 5723 5719 5717 5713 5710 5708 5705 5703 5702 5701 5701 5702 5702 5704
5727 5728 5761 5770 5772 5761 5744 5730 5721 5696 5696 5688 5696 5714 5728 5742 5742 5744 5746 5747 5746 5747 5747 5745 5743 5739 5735 5731 5726 5722 5717 5712 5708 5705 5702 5699 5696 5694 5693 5692 5692 5692 5693 5695
5744 5729 5744 5760 5766 5762 5753 5739 5709 5696 5680 5671 5686 5698 5703 5721 5727 5734 5736 5739 5742 5743 5742 5741 5738 5735 5731 5727 5722 5717 5712 5707 5702 5698 5694 5691 5687 5685 5683 5682 5681 5682 5682 5684
5746 5722 5727 5736 5736 5734 5737 5732 5713 5693 5686 5670 5666 5684 5720 5724 5729 5731 5735 5737 5737 5737 5736 5734 5732 5730 5726 5722 5717 5711 5706 5701 5695 5691 5687 5682 5678 5675 5673 5672 5671 5671 5671 5671
5743 5717 5708 5721 5740 5750 5742 5732 5712 5691 5687 5682 5670 5681 5719 5723 5725 5726 5726 5729 5730 5729 5727 5726 5724 5721 5717 5714 5711 5706 5701 5696 5691 5686 5681 5675 5671 5667 5664 5662 5661 5660 5659 5659
5742 5713 5693 5698 5711 5728 5729 5732 5725 5704 5687 5678 5670 5680 5706 5712 5714 5714 5714 5715 5715 5715 5714 5712 5710 5709 5708 5706 5704 5701 5697 5692 5687 5681 5675 5669 5664 5660 5656 5653 5651 5650 5649 5648
5747 5716 5699 5692 5698 5711 5713 5722 5725 5710 5684 5680 5682 5678 5683 5690 5693 5696 5698 5699 5699 5698 5698 5696 5695 5695 5696 5696 5696 5694 5691 5687 5682 5676 5669 5664 5659 5654 5650 5647 5644 5642 5640 5639
5740 5717 5718 5714 5719 5722 5718 5719 5721 5712 5703 5687 5677 5671 5670 5675 5678 5680 5683 5684 5684 5682 5681 5679 5678 5678 5680 5682 5683 5683 5683 5680 5676 5670 5664 5659 5655 5649 5645 5640 5637 5634 5633 5631
5734 5721 5720 5714 5722 5721 5713 5710 5708 5698 5694 5683 5673 5663 5667 5670 5670 5669 5668 5668 5666 5665 5665 5664 5664 5663 5664 5667 5669 5671 5672 5672 5669 5665 5660 5655 5650 5644 5639 5635 5631 5628 5626 5624
5726 5715 5705 5695 5709 5706 5688 5691 5685 5674 5671 5668 5656 5653 5659 5659 5658 5655 5654 5652 5649 5648 5647 5647 5646 5646 5647 5650 5654 5656 5661 5663 5662 5659 5655 5650 5645 5639 5634 5631 5626 5622 5620 5618
5725 5709 5694 5688 5692 5681 5681 5690 5681 5664 5655 5654 5650 5647 5647 5645 5647 5647 5643 5637 5634 5633 5632 5631 5630 5631 5632 5636 5640 5645 5649 5652 5653 5653 5650 5646 5641 5636 5631 5626 5621 5618 5615 5613
5734 5711 5690 5677 5673 5679 5678 5677 5669 5657 5640 5642 5637 5635 5635 5635 5636 5637 5633 5625 5619 5617 5615 5614 5614 5614 5616 5618 5623 5628 5634 5639 5642 5644 5643 5641 5637 5632 5627 5623 5619 5615 5612 5609
5722 5710 5690 5675 5667 5658 5662 5666 5668 5656 5629 5630 5627 5622 5620 5618 5610 5613 5617 5612 5609 5605 5602 5601 5600 5599 5599 5601 5604 5608 5615 5621 5626 5632 5634 5635 5633 5629 5625 5621 5617 5613 5610 5607
5696 5688 5679 5668 5660 5652 5643 5652 5657 5637 5623 5618 5614 5609 5603 5596 5592 5595 5595 5592 5589 5586 5584 5583 5582 5580 5580 5582 5584 5588 5595 5601 5609 5617 5622 5626 5627 5626 5623 5619 5615 5612 5608 5604
5673 5665 5659 5654 5648 5638 5631 5630 5620 5611 5610 5605 5601 5595 5588 5584 5582 5580 5578 5575 5572 5569 5567 5564 5562 5561 5560 5560 5562 5568 5574 5583 5591 5600 5609 5615 5619 5620 5619 5615 5612 5609 5605 5600
5658 5652 5646 5638 5628 5620 5619 5613 5608 5602 5595 5590 5584 5579 5574 5570 5567 5565 5562 5559 5556 5553 5550 5547 5544 5544 5544 5543 5544 5548 5557 5566 5574 5585 5596 5604 5610 5613 5614 5611 5608 5606 5603 5599
5646 5646 5636 5624 5617 5613 5609 5604 5597 5590 5582 5577 5571 5565 5559 5554 5553 5550 5548 5545 5541 5538 5534 5532 5529 5528 5529 5529 5530 5534 5541 5550 5559 5569 5582 5593 5601 5606 5608 5608 5607 5605 5603 5599
5630 5630 5623 5609 5604 5600 5598 5592 5586 5579 5572 5566 5561 5554 5548 5543 5541 5538 5535 5532 5529 5526 5523 5520 5516 5516 5517 5518 5519 5522 5527 5535 5545 5556 5569 5581 5591 5598 5603 5604 5605 5606 5606 5605
5616 5609 5603 5594 5591 5583 5580 5579 5574 5566 5561 5555 5549 5544 5539 5531 5526 5524 5522 5519 5516 5514 5512 5509 5507 5506 5507 5507 5509 5512 5517 5523 5532 5544 5557 5570 5581 5590 5597 5599 5599 5601 5603 5601